OneWeb SL0424

operational
NORAD ID: 50497 Int'l Des: 2021-132 Owner: ONEWEBN Country: UK Constellation: oneweb
LEOCIRCULARPOLARONEWEB_TYPE

OneWeb SL0424について

説明を読み込み中...

リアルタイム位置

3D地球を読み込み中...

次回通過

高度履歴

Altitude vs Time

uPlot chart will show altitude changes over time

軌道要素

1 50497U 21132AE 26062.35405776 .00000012 00000-0 -21203-5 0 9994
2 50497 87.9251 356.4686 0002197 78.9408 281.1971 13.18686272207699
Epoch: Mar 3, 2026 • Age: 39 hours

現在のステータス

高度 1204.3 km
速度 7.25 km/s
衛星直下点 -36.75°S, 36.77°W
打ち上げ日 Dec 27, 2021
運用期間 4.1 years
タイプ internet

技術仕様

分類 Payload
質量 148.00 kg
乾燥質量 140.00 kg
総質量 148.00 kg
長さ 1.30 m
直径 1.00 m
スパン 5.00 m
形状 Trapezoid+2 pan
製造者 ONEWUS
バスタイプ ARROW
フェーズステータス In Orbit
所有者/国 ONEWEBN/UK

大規模コンステレーション

Loading constellations...